Weather History for Hyannis, MA

Change the Weather History Date:

Tuesday, January 22, 2013

  Actual Average Record
Temperature  
Mean Temperature 22 °F -  
Max Temperature 28 °F 34 °F 55 °F (1958)
Min Temperature 15 °F 18 °F -6 °F (1970)
Degree Days  
Heating Degree Days 43    
Moisture  
Dew Point 14 °F    
Average Humidity 71    
Maximum Humidity 100    
Minimum Humidity 34    
Precipitation  
Precipitation 0.06 in - - ()
Sea Level Pressure  
Sea Level Pressure 29.81 in    
Wind  
Wind Speed 8 mph (WNW)    
Max Wind Speed 17 mph    
Max Gust Speed 29 mph    
Visibility 6 miles    
Events Snow    
Averages and records for this station are not official NWS values.
T = Trace of Precipitation, MM = Missing Value Source: NWS Daily Summary

Daily Weather History Graph

Daily Weather History Graph

Search for Another Location

Airport:

Trip Planner

Search our weather history database for the weather conditions in past years. The results will help you decide how hot, cold, wet, or windy it might be!

Date:

Astronomy

Jan. 22, 2013 Rise Set
Actual Time 7:01 AM EST 4:44 PM EST
Civil Twilight 6:31 AM EST 5:14 PM EST
Nautical Twilight 5:57 AM EST 5:48 PM EST
Astronomical Twilight 5:24 AM EST 6:21 PM EST
Moon 1:04 PM EST (1/22) 3:20 AM EST (1/22)
Length of Visible Light 10h 43m
Length of Day
9h 42m
Waxing Gibbous, 82% of the Moon is Illuminated
Jan 22
Waxing Gibbous
Jan 26
Full
Feb 3
Last Quarter
Feb 10
New
Feb 17
First Quarter

Hourly Weather History & Observations

Time (EST) Temp. Windchill Dew Point Humidity Pressure Visibility Wind Dir Wind Speed Gust Speed Precip Events Conditions
12:56 AM 28.9 °F 23.9 °F 27.0 °F 92% 29.73 in 1.5 mi North 4.6 mph - 0.00 in Snow Light Snow
1:43 AM 26.6 °F 16.8 °F 26.6 °F 100% 29.73 in 1.2 mi NNW 10.4 mph - 0.04 in Snow Light Snow
1:56 AM 28.0 °F 20.0 °F 26.1 °F 92% 29.74 in 1.2 mi NNW 8.1 mph - 0.04 in Snow Light Snow
2:08 AM 26.6 °F 18.2 °F 24.8 °F 93% 29.74 in 1.5 mi NNW 8.1 mph - 0.00 in Snow Light Snow
2:46 AM 26.6 °F 18.2 °F 24.8 °F 93% 29.72 in 1.0 mi NNW 8.1 mph - 0.01 in Snow Light Snow
2:49 AM 26.6 °F 17.5 °F 24.8 °F 93% 29.72 in 1.0 mi NW 9.2 mph - 0.01 in Snow Light Snow
2:56 AM 27.0 °F 20.5 °F 25.0 °F 92% 29.72 in 1.0 mi NW 5.8 mph - 0.01 in Snow Light Snow
3:05 AM 26.6 °F 18.2 °F 24.8 °F 93% 29.71 in 1.5 mi NW 8.1 mph - 0.00 in Snow Light Snow
3:20 AM 26.6 °F 19.1 °F 24.8 °F 93% 29.71 in 2.0 mi NW 6.9 mph - 0.00 in Snow Light Snow
3:29 AM 26.6 °F 21.2 °F 24.8 °F 93% 29.71 in 1.8 mi West 4.6 mph - 0.00 in Snow Light Snow
3:43 AM 26.6 °F 18.2 °F 24.8 °F 93% 29.70 in 1.5 mi WNW 8.1 mph - 0.00 in Snow Light Snow
3:56 AM 26.1 °F 19.4 °F 24.1 °F 92% 29.71 in 1.2 mi WNW 5.8 mph - 0.00 in Snow Light Snow
4:09 AM 26.6 °F 19.1 °F 24.8 °F 93% 29.70 in 0.8 mi WNW 6.9 mph - 0.01 in Snow Light Snow
4:14 AM 26.6 °F 19.1 °F 24.8 °F 93% 29.70 in 1.0 mi WNW 6.9 mph - 0.01 in Snow Light Snow
4:20 AM 26.6 °F 19.1 °F 24.8 °F 93% 29.70 in 3.0 mi WNW 6.9 mph - 0.01 in Snow Light Snow
4:42 AM 24.8 °F 16.9 °F 21.2 °F 86% 29.70 in 10.0 mi WNW 6.9 mph - 0.01 in   Mostly Cloudy
4:56 AM 24.1 °F 16.0 °F 21.0 °F 88% 29.71 in 10.0 mi WNW 6.9 mph - 0.01 in   Partly Cloudy
5:56 AM 23.0 °F 13.9 °F 19.9 °F 88% 29.73 in 10.0 mi WNW 8.1 mph - N/A   Clear
6:56 AM 21.9 °F 11.7 °F 19.0 °F 89% 29.75 in 10.0 mi WNW 9.2 mph - N/A   Scattered Clouds
7:56 AM 21.9 °F 10.4 °F 17.1 °F 82% 29.77 in 10.0 mi WNW 11.5 mph 19.6 mph N/A   Clear
8:56 AM 23.0 °F 9.2 °F 15.1 °F 72% 29.80 in 9.0 mi WNW 17.3 mph 28.8 mph N/A   Clear
9:56 AM 23.0 °F 9.2 °F 12.9 °F 65% 29.82 in 9.0 mi NW 17.3 mph 26.5 mph 0.00 in   Clear
10:56 AM 24.1 °F 10.6 °F 12.0 °F 60% 29.82 in 10.0 mi NW 17.3 mph 25.3 mph N/A   Clear
11:56 AM 25.0 °F 12.6 °F 7.0 °F 46% 29.83 in 10.0 mi WNW 15.0 mph 24.2 mph N/A   Clear
12:56 PM 26.1 °F 14.5 °F 6.1 °F 43% 29.83 in 10.0 mi NW 13.8 mph - N/A   Clear
1:56 PM 25.0 °F 12.6 °F 1.0 °F 36% 29.84 in 10.0 mi WNW 15.0 mph 20.7 mph N/A   Clear
2:56 PM 25.0 °F 15.5 °F -0.0 °F 34% 29.86 in 10.0 mi West 9.2 mph 20.7 mph N/A   Clear
3:56 PM 23.0 °F 15.8 °F -0.9 °F 35% 29.88 in 10.0 mi WNW 5.8 mph 16.1 mph N/A   Clear
4:56 PM 21.9 °F 13.4 °F -0.9 °F 37% 29.92 in 10.0 mi WNW 6.9 mph - N/A   Clear
5:56 PM 19.9 °F 11.1 °F -0.9 °F 40% 29.96 in 10.0 mi West 6.9 mph - N/A   Clear
6:56 PM 19.0 °F 8.2 °F -2.0 °F 40% 29.99 in 10.0 mi West 9.2 mph - N/A   Clear
7:56 PM 18.0 °F 8.7 °F -2.0 °F 41% 30.01 in 10.0 mi WNW 6.9 mph - N/A   Clear
8:56 PM 17.1 °F 5.0 °F -2.0 °F 43% 30.01 in 10.0 mi WNW 10.4 mph 18.4 mph N/A   Clear
9:56 PM 17.1 °F 3.6 °F -2.9 °F 41% 30.04 in 10.0 mi WNW 12.7 mph 17.3 mph N/A   Clear
10:56 PM 16.0 °F 4.4 °F -2.0 °F 45% 30.05 in 10.0 mi WNW 9.2 mph - N/A   Clear
11:56 PM 15.1 °F 4.2 °F -2.0 °F 47% 30.05 in 10.0 mi West 8.1 mph - N/A   Clear